Regional Weather Roundup
Issued by NWS Charleston, SC

Current Version | Previous Version | Text Only | Print | Product List | Glossary Off
Versions: 1 2 3 4 5 6 7 8 9 10 11 12 13 14 15 16 17 18 19 20 21 22 23 24 25 26 27 28 29 30 31 32 33 34 35 36 37 38 39 40 41 42 43 44 45 46 47 48 49 50

000
ASUS42 KCHS 032127
RWRCHS

REGIONAL WEATHER ROUNDUP
NATIONAL WEATHER SERVICE CHARLESTON SC
500 PM EDT THU SEP 03 2015

NOTE: "FAIR" INDICATES FEW OR NO CLOUDS BELOW 12,000 FEET WITH NO
SIGNIFICANT WEATHER AND/OR OBSTRUCTIONS TO VISIBILITY.

NOT ALL STATIONS ARE QUALITY CONTROLLED BY THE NATIONAL
WEATHER SERVICE. USE DATA WITH CAUTION...ESPECIALLY
DEWPOINT OBSERVATIONS.

SCZ027-030-031-034>040-042>050-032200-
...SOUTHEAST SOUTH CAROLINA...

CITY           SKY/WX    TMP DP  RH WIND       PRES   REMARKS
N CHARLESTON   CLOUDY    85  73  67 S6        29.89F HX  91
WATERFRONT PRK   N/A     83  75  76 S8        29.88F HX  90
MOUNT PLEASANT LGT RAIN  84  75  74 S8        29.90S HX  92
JOHNS ISLAND   FAIR      86  75  70 S7        29.90S HX  95
PINOPOLIS        N/A     93  72  49 CALM      29.80F HX 100
MONCKS CORNER  FAIR      84  73  70 CALM      29.89S HX  91
SUMMERVILLE    FAIR      82  73  74 S6        29.90S
BEAUFORT MCAS  PTSUNNY   89  77  67 S5        29.90F HX 101
BEAUFORT ARPT  FAIR      86  77  74 CALM      29.90R HX  97
HILTON HEAD IS PTSUNNY   82  73  74 S5        29.92F
WALTERBORO     CLOUDY    90  72  55 W6        29.90F HX  96
ALLENDALE      FAIR      90  73  58 N6        29.89S HX  98

...SOUTHERN MIDLANDS AND PEE DEE...

CITY           SKY/WX    TMP DP  RH WIND       PRES   REMARKS
GEORGETOWN     NOT AVBL
KINGSTREE      NOT AVBL
ORANGEBURG     CLOUDY    89  69  51 NW5       29.90S HX  93
BARNWELL       FAIR      91  72  52 CALM      29.91S HX  98
AIKEN          FAIR      82  70  65 NW5       29.95F
MANNING        FAIR      88  66  48 SW3       29.88F HX  90
COLUMBIA       CLOUDY    88  70  55 SW8       29.89F HX  93
SUMTER         PTSUNNY   90  72  55 SW8       29.87F THUNDER HX  96
FLORENCE       MOSUNNY   93  71  48 N6        29.87F HX 100
MYRTLE BEACH   MOSUNNY   88  73  62 S12       29.88F HX  96
N MYRTLE BEACH TSTM      73  70  90 VRB5G23   29.93R VSB 1/4

$$

GAZ063-065-086>088-099>101-113>116-118-119-134>141-150-032200-
...SOUTHEAST GEORGIA...

CITY           SKY/WX    TMP DP  RH WIND       PRES   REMARKS
SAVANNAH ARPT  CLOUDY    89  71  55 CALM      29.90F HX  95
HUNTER AAF     DRIZZLE   86  81  84 SE7       29.88F HX 102
FORT STEWART   CLOUDY    88  75  63 CALM      29.88F HX  98
STATESBORO     PTSUNNY   89  76  65 W3        29.90S HX 100
SYLVANIA       NOT AVBL
CLAXTON        NOT AVBL

...CSRA...CENTRAL AND FAR SOUTHEAST GEORGIA...

CITY           SKY/WX    TMP DP  RH WIND       PRES   REMARKS
THOMSON        PTSUNNY   89  76  66 CALM      29.96F HX 100
AUGUSTA-BUSH   PTSUNNY   89  72  56 CALM      29.90F HX  96
AUGUSTA-DANIEL PTSUNNY   90  71  53 N3        29.92F HX  96
SWAINSBORO     FAIR      88  73  62 W6        29.93S HX  96
VIDALIA        CLOUDY    84  75  74 W3        29.92F HX  92
EASTMAN        FAIR      87  77  72 CALM      29.95S HX  98
HAZLEHURST     FAIR      87  74  66 CALM      29.91F HX  95
ALMA           CLOUDY    86  75  69 W5        29.92F HX  95
WAYCROSS       CLOUDY    89  78  70 NW3       29.91F HX 103
JESUP          LGT RAIN  88  79  74 SE5       29.91F HX 102
BAXLEY         FAIR      88  73  62 N3        29.91F HX  96
BRUNSWICK      CLOUDY    86  77  74 NE6       29.91F HX  97
SAINT SIMONS   CLOUDY    84  76  76 E8        29.91F HX  93

$$

SCZ027-028-034-036>038-045-046-048>050-GAZ119-141-032200-
...LAKE AND SUPPLEMENTAL COASTAL OBSERVATIONS...

STATION/POSITION TIME  TEMP    WIND        PRES    WAVE   SWELL
                       AIR SEA DIR/SP/G            HT/PER HT/PER/DIR
                 (UTC) (F)     (DEG/KT/KT) (MB)    (FT/S) (FT/S/D)
UPR LAKE MARION  NOT AVBL
WINYAH BAY       2045   84     200/ 11     1011.0F
LAKE MURRAY      2100   87     250/  9/ 12 1011.5F
ACE BASIN NERRS  NOT AVBL
FORT PULASKI     2100   83 83   80/  4/  5 1013.1F
SAPELO ISLAND    2100   84      70/  6     1012.0F

$$

ANZ835-935-AMZ111-154-330-350-352-354-370-450-454-472-032200-
...C-MAN AND BUOY OBSERVATIONS...

STATION/POSITION TIME  TEMP    WIND        PRES    WAVE   SWELL
                       AIR SEA DIR/SP/G            HT/PER HT/PER/DIR
                 (UTC) (F)     (DEG/KT/KT) (MB)    (FT/S) (FT/S/D)
BUOY 41004       2050   81 85  160/  4/  6 1012.4F   2/ 8   2/ 8
BUOY 41008       2050   81 84   30/  6/  8 1012.9F   1/ 8   2/110/ 8
FOLLY BEACH CMAN 2100   82     190/  9/ 11 1012.6F
CAPERS NEARSHORE 2008   82     190/ 10/ 14 1012.8F
FRIPP NEARSHORE  2000   84     150/  4/  6 1012.9F


STATION/POSITION TIME  TEMP    WIND        PRES    WAVE   SWELL
                       AIR SEA DIR/SP/G            HT/PER HT/PER/DIR
                 (UTC) (F)     (DEG/KT/KT) (MB)    (FT/S) (FT/S/D)
5E ST. MARYS GA  NOT AVBL
FRYING PAN BUOY  2050   83 82  220/ 10/ 12 1012.5F   2/ 8   2/130/ 8
BUOY 41025       2050   84 87   CALM  /  2 1012.2F   1/12   2/ 70/12
CAPE LOOKOUT NC  2100   81     220/  6/  7 1011.5F
BUOY 41002       2050   84 85  310/  6/  8 1012.4F   2/ 8   2/ 80/ 8
BUOY 41010       2020   85 86  290/ 10/ 12 1013.6F
ST AUGUSTINE FL  2100   83 85   80/  4/  4 1013.5F


$$



USA.gov is the U.S. government's official web portal to all federal, state and local government web resources and services.